Regional Weather Roundup
Issued by NWS

Home | Current Version | Previous Version | Graphics & Text | Print | Product List | Glossary On
Versions: 1 2 3 4 5 6 7 8 9 10 11 12 13 14 15 16 17 18 19 20 21 22 23 24 25 26 27 28 29 30 31 32 33 34 35 36 37 38 39 40 41 42 43 44 45 46 47 48 49 50
000
ASUS43 KMKX 021111
RWRWI

WISCONSIN REGIONAL WEATHER ROUNDUP
NATIONAL WEATHER SERVICE MILWAUKEE/SULLIVAN WI
600 AM CDT WED SEP 02 2015

NOTE: "FAIR" INDICATES FEW OR NO CLOUDS BELOW 12,000 FEET WITH NO
SIGNIFICANT WEATHER AND/OR OBSTRUCTIONS TO VISIBILITY.

WIZ001-002-006>008-014>016-023>028-021200-
NORTHWEST WISCONSIN

CITY           SKY/WX    TMP DP  RH WIND       PRES   REMARKS
SUPERIOR ARPT  CLOUDY    64  63  98 NE8       29.93F FOG
ASHLAND        TSTM      67  67 100 W5        29.95R VSB 3/4
HAYWARD        TSTM      65  64  97 N3        29.98S
SIREN          RAIN      68  67  96 NE5       29.96R
CUMBERLAND     RAIN      68  66  94 NE5       29.98R
RICE LAKE      CLOUDY    68  66  94 N10G22    29.99R
CHETEK         LGT RAIN N/A N/A N/A CALM      29.96R
LADYSMITH      CLOUDY    72  71  96 S5        29.98R FOG
EAU CLAIRE     CLOUDY    73  70  90 SW5       29.95R
MENOMONIE      RAIN      73  72  94 SW5       29.96R
NEW RICHMOND   LGT RAIN  71  71  99 W6        29.94F
OSCEOLA        LGT RAIN  70  70 100 CALM      29.97R
$$

WIZ003>005-009-010-017-018-021200-
NORTH CENTRAL WISCONSIN

CITY           SKY/WX    TMP DP  RH WIND       PRES   REMARKS
MANITOWISH WTR CLOUDY    64  64 100 CALM      29.98S FOG
ARBOR VITAE    CLOUDY    67  66  95 CALM      29.99R
WOODRUFF       CLOUDY    67  66  95 CALM      29.99R
RHINELANDER    FOG       69  68  96 CALM      30.00R VSB 1/4
EAGLE RIVER    MOCLDY    64  64 100 CALM      29.99S FOG
LAND O LAKES   MOCLDY    62  62 100 CALM      30.01R FOG
PHILLIPS       CLOUDY    70  70 100 CALM      29.97S FOG
TOMAHAWK       FOG       66  65  97 CALM      29.99S VSB 1/4
MEDFORD        CLOUDY    71  71 100 S6        29.99S FOG
MERRILL        FOG       64  64 100 CALM      29.99S VSB 1/4
$$

WIZ029-030-035-036-043>047-021200-
CENTRAL WISCONSIN

CITY           SKY/WX    TMP DP  RH WIND       PRES   REMARKS
WAUSAU         PTCLDY    72  71  97 S6        29.98R FOG
MOSINEE        CLOUDY    70  70 100 SW5       30.01R FOG
MARSHFIELD     FOG       70  67  90 SW6       29.99R VSB 1/4
STEVENS POINT  MOCLDY    67  67 100 SW3       30.01R FOG
WAUPACA        FOG       70  69  96 S3        29.99R VSB 1/4
WAUTOMA        FOG       67  67 100 CALM      30.00R VSB 1/4
WISC RAPIDS    LGT RAIN  71  69  93 SW3       30.00R FOG
CAMP DOUGLAS   PTCLDY    64  64 100 SE3       29.99R FOG
$$

WIZ011>013-019>022-031-037>040-048>050-021200-
NORTHEAST WISCONSIN

CITY           SKY/WX    TMP DP  RH WIND       PRES   REMARKS
ANTIGO         FOG       65  65 100 CALM      30.01R VSB 1/4
SHAWANO        MOCLDY    71  69  95 CALM      29.98R FOG
OCONTO         CLOUDY    66  66 100 CALM      29.96R VSB 1/2
STURGEON BAY   PTCLDY    73  70  88 W6        29.99R
GREEN BAY      CLEAR     69  68  96 CALM      29.97R FOG
MANITOWOC      CLEAR     70  69  97 MISG      29.98R FOG
APPLETON       CLEAR     72  72 100 SW7       29.96S FOG
CLINTONVILLE   FOG       66  64  94 CALM      29.98R VSB 1/4
OSHKOSH        CLEAR     72  69  90 SW6       29.99R FOG
$$

WIZ032>034-041-042-053>061-021200-
SOUTHWEST WISCONSIN

CITY           SKY/WX    TMP DP  RH WIND       PRES   REMARKS
LA CROSSE      MOCLDY    75  70  84 SE9       29.96R
SPARTA         PTCLDY    64  63  95 CALM      29.99R
VIROQUA          N/A     70  70 100 SW3       30.01R
BOSCOBEL       FOG       66  65  96 CALM      29.99S VSB 1/4
PRAIRIE DU CHI PTCLDY    69  65  90 CALM      29.99S
PLATTEVILLE    CLEAR     69  67  95 S5        30.02S
$$

WIZ056-057-062-063-064-067-068-021200-
SOUTH CENTRAL WISCONSIN

CITY           SKY/WX    TMP DP  RH WIND       PRES   REMARKS
REEDSBURG      MOCLDY    68  68  98 CALM      29.99S FOG
BARABOO/DELLS  MOCLDY    71  66  84 CALM      30.02R
LONE ROCK      PTCLDY    66  64  93 NE3       30.01R FOG
MINERAL POINT  PTCLDY    70  68  94 CALM      30.03S
MADISON        MOCLDY    71  67  87 CALM      30.01R
MIDDLETON      PTCLDY    71  69  95 CALM      30.02S
WATERTOWN        N/A     67  67 100 CALM      30.02R FOG
MONROE         CLEAR     68  68 100 SW8       30.03R
JANESVILLE     CLEAR     70  68  94 SE3       30.02R
$$

WIZ051-052-058>065-066-070>072-021200-
SOUTHEAST WISCONSIN

CITY           SKY/WX    TMP DP  RH WIND       PRES   REMARKS
MILWAUKEE      CLEAR     74  68  81 W6        30.01R
WAUKESHA       CLEAR     68  66  94 CALM      30.03R
MILWAUKEE/TIMM CLEAR     70  64  83 SW5       30.02R
RACINE         CLEAR     70  67  90 SW3       30.03R
BURLINGTON     CLEAR     65  64  98 CALM      30.02S FOG
KENOSHA        PTCLDY    71  68  90 W6        30.02S
FOND DU LAC    CLEAR     72  70  93 SW5       30.00R
SHEBOYGAN      CLEAR     71  69  93 SW3       29.99R FOG
WEST BEND      CLEAR     70  68  94 CALM      30.01R
JUNEAU         CLEAR     68  68  98 CALM      30.03R FOG
$$

LSZ147-162-021200-
LAKE SUPERIOR

STATION/POSITION TIME  TEMP    WIND        PRES    WAVE
                       AIR SEA DIR/SP/G            HT/PER
                 (UTC) (F)     (DEG/KT/KT) (MB)    (FT/S)
W MID LAKE BUOY  1050   57 56   20/  6/  8 1014.3R   0
DEVILS ISLAND    1100   61      40/  5/  5 1014.3R
PORT WING        1040   62      CALM  /  3 1013.9R
SAXON HARBOR     1000   68     190/  2/  7 1012.9S
$$

LMZ867-665-643>646-021200-
LAKE MICHIGAN

STATION/POSITION TIME  TEMP    WIND        PRES    WAVE
                       AIR SEA DIR/SP/G            HT/PER
                 (UTC) (F)     (DEG/KT/KT) (MB)    (FT/S)
CHAMBERS ISLAND  1000   69      CALM  /  2 1013.5S
S GREEN BAY BUOY 1000   69 67  220/  6/  8 1015.4
N MID LAKE BUOY  1050   66 65  200/  4/  4 1013.7R   1/ 4
NORTHPORT PIER   1000   64     100/  2/  2 1013.5S
SISTER BAY       1019   71        CALM       N/A
ALGOMA LAKESHORE 1044             CALM       N/A
KEWAUNEE LAKESHO 1000          190/  3/  4 1013.2R
SHEBOYGAN LAKESH 1100   74     250/  9/ 11 1015.2R
PORT WASHINGTON  1000   74     270/  7/ 11 1015.6S
ATWATER BUOY     1100   63 50  140/  2/  6 1017.2R
MILWAUKEE LAKESH 1010   75     250/  7/  8   N/A
S MID LAKE BUOY  1050   72 70  210/ 10/ 12 1015.7R   1/ 3
KENOSHA   LAKESH 1100   75     240/  5/  9 1016.3R
$$

TC  - TEMPERATURE IN CELSIUS
VSB - VISIBILITY IN STATUTE MILES
WCI - WIND CHILL INDEX
HX  - HEAT INDEX




USA.gov is the U.S. government's official web portal to all federal, state and local government web resources and services.